Regional Weather Roundup
Issued by NWS Charleston, WV

Home | Current Version | Previous Version | Text Only | Print | Product List | Glossary Off
Versions: 1 2 3 4 5 6 7 8 9 10 11 12 13 14 15 16 17 18 19 20 21 22 23 24 25 26 27

000
ASUS41 KRLX 270110
RWRRLX
West Virginia Regional Weather Roundup
National Weather Service Charleston WV
900 PM EDT WED APR 26 2017

Note: "fair" indicates few or no clouds below 12,000 feet with no
significant weather and/or obstructions to visibility.

WVZ003-270200-
Northern Panhandle of West Virginia

CITY           SKY/WX    TMP DP  RH WIND       PRES   REMARKS
WHEELING       CLEAR     75  51  43 SE6       29.68S
$$

WVZ009-270200-
Northwest West Virginia

CITY           SKY/WX    TMP DP  RH WIND       PRES   REMARKS
PARKERSBURG    CLEAR     71  51  49 SE3       29.68S
$$

WVZ006-270200-
Western West Virginia

CITY           SKY/WX    TMP DP  RH WIND       PRES   REMARKS
HUNTINGTON     CLEAR     77  51  40 E5        29.63F
$$

WVZ015-270200-
West Central West Virginia

CITY           SKY/WX    TMP DP  RH WIND       PRES   REMARKS
CHARLESTON     CLEAR     73  54  51 CALM      29.66S
$$

WVZ022-031-270200-
North Central West Virginia

CITY           SKY/WX    TMP DP  RH WIND       PRES   REMARKS
CLARKSBURG     CLEAR     68  55  63 CALM      29.70S
MORGANTOWN     CLEAR     71  53  52 CALM      29.72S
$$

WVZ025-035-042-045-270200-
Southern West Virginia

CITY           SKY/WX    TMP DP  RH WIND       PRES   REMARKS
BECKLEY        CLEAR     72  52  49 SE12      29.77S
LOGAN            N/A     77  50  38 S3        29.70S
BLUEFIELD      CLEAR     70  56  61 S7        29.81R
LEWISBURG      CLEAR     66  54  65 CALM      29.80R
$$

WVZ047-270200-
Northern Mountains of West Virginia

CITY           SKY/WX    TMP DP  RH WIND       PRES   REMARKS
ELKINS         CLEAR     61  55  81 CALM      29.76R
$$

WVZ052-270200-
Eastern Panhandle of West Virginia

CITY           SKY/WX    TMP DP  RH WIND       PRES   REMARKS
MARTINSBURG    CLEAR     65  57  75 E3        29.78R
PETERSBURG     CLEAR     66  62  87 NW3       29.76R
$$




USA.gov is the U.S. government's official web portal to all federal, state and local government web resources and services.